Location: Unspecified
(44.7340°N, 0.0000°E)
Time: 05:02:44
(UTC+00:00)

CZ-6A DEB - Visible Passes

Search period start: 04 April 2026 00:00
Search period end: 14 April 2026 00:00
Orbit: 760 x 1063 km, 89.0° (Epoch: 29 March)

Date Brightness Start Highest point End Pass type
(mag) Time Alt. Az. Time Alt. Az. Time Alt. Az.
4 Apr ? 04:55:15 10° ESE 04:58:25 16° ENE 05:01:30 10° NE visible
4 Apr ? 19:04:32 10° NNW 19:09:03 32° W 19:13:43 10° SW visible
5 Apr ? 05:00:44 10° ESE 05:04:31 19° ENE 05:08:09 10° NNE visible
5 Apr ? 19:10:56 10° NNW 19:15:10 26° WNW 19:19:33 10° SW visible
6 Apr ? 19:17:24 10° NNW 19:21:16 22° WNW 19:25:15 10° SW visible
7 Apr ? 19:23:56 10° NNW 19:27:21 18° WNW 19:30:51 10° WSW visible
8 Apr ? 19:30:39 10° NW 19:33:25 15° WNW 19:36:14 10° WSW visible
9 Apr ? 19:37:39 10° NW 19:39:28 12° WNW 19:41:18 10° W visible
13 Apr ? 04:09:09 10° E 04:11:08 12° ENE 04:13:06 10° NE visible
